Location: *
(40.4270°N, 9.4940°E)
Time: 00:15:34
(UTC+02:00)

Okean 2 - Visible Passes

Search period start: 02 August 2015 00:00
Search period end: 12 August 2015 00:00
Orbit: 564 x 583 km, 82.5° (Epoch: 31 July)

Date Brightness Start Highest point End Pass type
(mag) Time Alt. Az. Time Alt. Az. Time Alt. Az.
02 Aug 5.6 00:19:39 10° NW 00:21:58 20° WNW 00:21:58 20° WNW visible
02 Aug 4.3 22:45:23 10° NNE 22:48:51 33° ENE 22:48:51 33° ENE visible
03 Aug 5.8 00:23:07 10° NW 00:25:03 16° WNW 00:25:03 16° WNW visible
03 Aug 3.9 22:48:15 10° N 22:51:57 44° ENE 22:51:57 44° ENE visible
04 Aug 6.1 00:26:51 10° WNW 00:28:10 12° WNW 00:28:10 12° WNW visible
04 Aug 3.5 22:51:10 10° N 22:55:05 61° ENE 22:55:05 61° ENE visible
05 Aug 3.2 22:54:08 10° N 22:58:13 83° ENE 22:58:13 83° ENE visible
06 Aug 3.4 22:57:10 10° NNW 23:01:16 72° W 23:01:22 72° WSW visible
07 Aug 5.5 21:25:34 10° NE 21:26:53 12° ENE 21:28:20 10° E visible
07 Aug 3.9 23:00:14 10° NNW 23:04:15 52° W 23:04:33 51° WSW visible
08 Aug 5.2 21:27:41 10° NE 21:30:03 15° ENE 21:31:32 13° E visible
08 Aug 4.4 23:03:22 10° NNW 23:07:13 39° W 23:07:44 37° WSW visible
09 Aug 4.9 21:30:11 10° NNE 21:33:10 20° ENE 21:34:44 16° ESE visible
09 Aug 4.9 23:06:35 10° NNW 23:10:11 29° W 23:10:57 27° WSW visible
10 Aug 4.6 21:32:51 10° NNE 21:36:17 25° ENE 21:37:59 20° ESE visible
10 Aug 5.4 23:09:53 10° NW 23:13:08 22° W 23:14:12 20° WSW visible
11 Aug 4.2 21:35:37 10° NNE 21:39:22 33° ENE 21:41:15 22° SE visible
11 Aug 5.8 23:13:20 10° NW 23:16:04 17° W 23:17:27 14° WSW visible
